Location: Unspecified
(0.0000°N, 0.0000°E)
Time: 01:27:48
(UTC+00:00)

Courier 1B Rocket - Pass Details

Date: 28 November 2019
Orbit: 920 x 1202 km, 28.2° (Epoch: 10 December)

Event Time Altitude Azimuth Distance (km) Brightness Sun altitude
Rises 22:23:13 0° 252° (WSW) 4,088 8.6 -60.2°
Enters shadow 22:25:00 - 244° (WSW) 3,683 8.4 -60.5°
Reaches altitude 10° 22:28:08 10° 226° (SW) 3,132 - -61.1°
Maximum altitude 22:31:25 13° 200° (SSW) 2,903 - -61.6°
Drops below altitude 10° 22:34:42 10° 175° (S) 3,111 - -62.1°
Sets 22:39:35 0° 148° (SSE) 4,036 - -62.9°
